カタログに戻る

HJS-9D

運用中科学VLEO
NORAD 68834·PAYLOAD·🇨🇳 China

打ち上げ Apr 24, 2026 から Xichang Satellite Launch Center

Loading…

次のパス (今後24時間)

TLE

最新Source: Space-Track

元期: Sep 14, 2026, 11:26 UTC

1 68834U 26091D   26257.47666423  .00006624  00000-0  32360-3 0  9992
2 68834  55.0031 351.4945 0012939 323.0570  36.9557 15.19377449 21772

AllMySatでHJS-9Dをリアルタイム追跡

Download on the App Store